logo
Games tagged Crowdfunded
# Game Release date
Price
Score rank
(Userscore / Metascore)
Owners
Players
Playtime (Median)
Developer(s)
Publisher(s)
1 Pillars of Eternity Mar 26, 2015 $29.99N/A (N/A/89%)1,000,000 .. 2,000,0000.75%90:55 (30:18)Obsidian EntertainmentParadox Interactive
2 Wasteland 2: Director's Cut Sep 18, 2014 $29.99N/A (N/A/87%)500,000 .. 1,000,0000%00:00 (00:00)inXile EntertainmentinXile Entertainment
3 Divinity: Original Sin (Classic) Jun 30, 2014 $39.99N/A (N/A/87%)1,000,000 .. 2,000,0000%00:00 (00:00)Larian StudiosLarian Studios
4 Sunless Skies: Sovereign Edition Jan 31, 2019 $24.99N/A (N/A/87%)200,000 .. 500,0002.08%10:19 (03:26)Failbetter GamesFailbetter Games
5 Muv-Luv Alternative (マブラヴ オルタネイティヴ) Sep 18, 2017 $39.99N/A (N/A/83%)20,000 .. 50,0000%00:00 (00:00)aNCHOR Inc.aNCHOR Inc.
6 Skullgirls 2nd Encore Aug 22, 2013 $2.49N/A (N/A/83%)2,000,000 .. 5,000,0003.16%00:16 (00:20)Hidden Variable StudiosAutumn Games
7 Grim Dawn Feb 25, 2016 $24.99N/A (N/A/83%)5,000,000 .. 10,000,0001.43%06:03 (06:02)Crate EntertainmentCrate Entertainment
8 The Banner Saga Jan 14, 2014 $7.99N/A (N/A/80%)500,000 .. 1,000,0000%00:00 (00:00)StoicStoic Studio
9 Kelvin and the Infamous Machine Jul 21, 2016 $9.99N/A (N/A/79%)20,000 .. 50,0000%00:00 (00:00)BlytsBlyts
10 Battle Chasers: Nightwar Oct 3, 2017 $29.99N/A (N/A/78%)200,000 .. 500,0000%00:00 (00:00)Airship SyndicateTHQ Nordic
11 Kingdom Come: Deliverance Feb 13, 2018 $29.99N/A (N/A/76%)2,000,000 .. 5,000,0002.44%03:53 (03:11)Warhorse StudiosWarhorse Studios, Prime Matter
12 Muv-Luv (マブラヴ) Jul 15, 2016 $29.99N/A (N/A/76%)20,000 .. 50,0000%00:00 (00:00)aNCHOR Inc.aNCHOR Inc.
13 Shantae: Half-Genie Hero Dec 20, 2016 $19.99N/A (N/A/76%)100,000 .. 200,0000%00:00 (00:00)WayForwardWayForward
14 Shadowrun Returns Jul 25, 2013 $9.99N/A (N/A/76%)1,000,000 .. 2,000,0000%00:00 (00:00)Harebrained SchemesParadox Interactive
15 Root Double -Before Crime * After Days- Xtend Edition Apr 27, 2016 $34.99N/A (N/A/75%)20,000 .. 50,0000%00:00 (00:00)Yeti, RegistaSekai Project
16 Guard Duty May 2, 2019 $9.99N/A (N/A/73%)0 .. 20,0000%00:00 (00:00)Headware GamesDigital Tribe
17 Broken Age Jan 28, 2014 $14.99N/A (N/A/73%)500,000 .. 1,000,0000%00:00 (00:00)Double Fine ProductionsDouble Fine Productions
18 Kona Mar 17, 2017 $14.99N/A (N/A/73%)100,000 .. 200,0000%00:00 (00:00)ParaboleParabole, Ravenscourt
19 Spellcaster University Jun 15, 2021 $24.99N/A (N/A/73%)100,000 .. 200,0000%00:00 (00:00)Sneaky Yak StudioSneaky Yak Studio, WhisperGames
20 Knock-knock Oct 4, 2013 $9.99N/A (N/A/57%)100,000 .. 200,0000%00:00 (00:00)Ice-Pick LodgeIce-Pick Lodge
21 Son of Nor Apr 27, 2015 $19.99N/A (N/A/54%)20,000 .. 50,0000%00:00 (00:00)stillalive studiosViva Media
22 Voices from the Sea Sep 16, 2014 N/AN/A (N/A)100,000 .. 200,0000%00:00 (00:00)Zeiva IncZeiva Inc
23 Vex Sep 13, 2016 N/AN/A (N/A)0 .. 20,0000%00:00 (00:00)Stenner Studios, Killbox GraphicsUltraShock Gaming
24 Eternal Hour: Golden Hour Nov 27, 2017 FreeN/A (N/A)100,000 .. 200,0000%00:00 (00:00)Seventh Heart StudiosSekai Project
25 Hex Gambit Oct 15, 2018 N/AN/A (N/A)0 .. 20,0000%00:00 (00:00)One Man Left StudiosOne Man Left Studios
26 Narcissu 1st & 2nd May 15, 2007 FreeN/A (N/A)200,000 .. 500,0000%00:00 (00:00)stage-nanaSekai Project
27 Godus Jan 1, 1985 $14.99N/A (N/A)200,000 .. 500,0000%00:00 (00:00)22cans22cans Ltd.
28 XOXO Droplets Aug 31, 2017 FreeN/A (N/A)20,000 .. 50,0000%00:00 (00:00)GB Patch GamesGB Patch Games
29 Narcissu 10th Anniversary Anthology Project Jan 27, 2016 $2.99N/A (N/A)50,000 .. 100,0000%00:00 (00:00)stage-nanaSekai Project
30 Rabi-Ribi Jan 28, 2016 $7.19N/A (N/A)100,000 .. 200,0000%00:00 (00:00)CreSpirit, GemaYueCreSpirit
31 BEARZERKERS Oct 23, 2015 $12.99N/A (N/A)0 .. 20,0000%00:00 (00:00)WildgrassWildgrass
32 Fallen: A2P Protocol Aug 14, 2015 $9.99N/A (N/A)50,000 .. 100,0000%00:00 (00:00)Red KatanaRed Katana
33 CLANNAD Side Stories Jun 2, 2016 $19.99N/A (N/A)20,000 .. 50,0000%00:00 (00:00)VisualArts/KeySekai Project
34 KARAKARA Jun 27, 2016 $9.99N/A (N/A)50,000 .. 100,0000%00:00 (00:00)calmeSekai Project
35 Borealis Sep 2, 2014 $4.99N/A (N/A)50,000 .. 100,0000%00:00 (00:00)Conrad NelsonNone
36 Colonial Conquest Jul 28, 2015 $9.99N/A (N/A)20,000 .. 50,0000%00:00 (00:00)Argonauts Interactive, Collectif NemoïdPlug In Digital, Argonauts Interactive
37 Painting VR Apr 14, 2022 $19.99N/A (N/A)0 .. 20,0000%00:00 (00:00)OisoiCybernetic Walrus
38 DRONE The Game Aug 1, 2020 $19.99N/A (N/A)50,000 .. 100,0000%00:00 (00:00)Five Studios InteractiveFive Studios Interactive
39 Lancelot's Hangover: The Quest for the Holy Booze Oct 1, 2020 $14.99N/A (N/A)0 .. 20,0000%00:00 (00:00)Jean-Baptiste de ClerfaytJean-Baptiste de Clerfayt
40 Aquanox Deep Descent Oct 16, 2020 $29.99N/A (N/A)20,000 .. 50,0000%00:00 (00:00)Digital ArrowTHQ Nordic
41 Landflix Odyssey Nov 13, 2020 $14.99N/A (N/A)0 .. 20,0000%00:00 (00:00)Fantastico StudioFantastico Studio
42 Flowers Blooming at the End of Summer Feb 26, 2021 FreeN/A (N/A)20,000 .. 50,0000%00:00 (00:00)MidnightWorksPsychoFlux Entertainment
43 Ayo the Clown Jul 27, 2021 $19.99N/A (N/A)0 .. 20,0000%00:00 (00:00)Cloud M1Cloud M1
44 The Piano That Stops Time Feb 20, 2022 $0.99N/A (N/A)0 .. 20,0000%00:00 (00:00)CrocusWorksPsychoFlux Entertainment
45 Black Geyser: Couriers of Darkness Mar 17, 2022 $29.99N/A (N/A)50,000 .. 100,0000%00:00 (00:00)GrapeOcean TechnologiesV Publishing, GrapeOcean Technologies
46 WORLD END ECONOMiCA episode.02 Jul 21, 2015 $12.99N/A (N/A)20,000 .. 50,0000%00:00 (00:00)Spicy TailsSekai Project
47 fault - milestone one Aug 9, 2013 $7.49N/A (N/A)200,000 .. 500,0000%00:00 (00:00)ALICE IN DISSONANCEALICE IN DISSONANCE
48 Chuck's Challenge 3D 2020 Sep 21, 2020 $9.99N/A (N/A)50,000 .. 100,0000%00:00 (00:00)Niffler Ltd.Niffler Ltd.
49 WORLD END ECONOMiCA episode.01 May 5, 2014 $12.99N/A (N/A)50,000 .. 100,0000%00:00 (00:00)Spicy TailsSekai Project
50 AR-K Jul 21, 2014 $7.99N/A (N/A)100,000 .. 200,0000%00:00 (00:00)GATO STUDIOGATO STUDIO
51 ChronoClock Feb 28, 2017 $17.99N/A (N/A)0 .. 20,0000%00:00 (00:00)Purple SoftwareSekai Project
52 Catmouth Island Dec 31, 2014 $0.99N/A (N/A)20,000 .. 50,0000%00:00 (00:00)Colonthree EnterprisesColonthree Enterprises
53 Paparazzi Feb 17, 2015 $1.99N/A (N/A)0 .. 20,0000%00:00 (00:00)Pringo Dingo GamesPringo Dingo Games
54 Epitasis May 1, 2019 $14.99N/A (N/A)20,000 .. 50,0000%00:00 (00:00)Epitasis GamesEpitasis Games
55 A More Beautiful World - A Kinetic Visual Novel Sep 28, 2018 N/AN/A (N/A)0 .. 20,0000%00:00 (00:00)Afterthought StudiosSekai Project
56 Hoyeonjigi Nov 9, 2018 $3.99N/A (N/A)0 .. 20,0000%00:00 (00:00)YuraePsychoFlux Entertainment
57 Maia Nov 23, 2018 $24.99N/A (N/A)20,000 .. 50,0000%00:00 (00:00)Simon RothMachine Studios
58 NAIRI: Tower of Shirin Nov 29, 2018 $4.99N/A (N/A)20,000 .. 50,0000%00:00 (00:00)HomeBearStudioHound Picked Games
59 Night of the Blood Moon Jan 21, 2019 $4.99N/A (N/A)0 .. 20,0000%00:00 (00:00)Tyler McDermottTyler McDermott
60 Spinnortality | cyberpunk management sim Feb 1, 2019 $9.99N/A (N/A)50,000 .. 100,0000%00:00 (00:00)James PattonClockwork Bird
61 Dream Rose Feb 10, 2019 $4.99N/A (N/A)0 .. 20,0000%00:00 (00:00)SupremePsychoFlux Entertainment
62 Aurora Dusk: Steam Age Apr 29, 2016 $9.99N/A (N/A)20,000 .. 50,0000%00:00 (00:00)Sylvain HarlautSylvain Harlaut
63 The Mystery Of Woolley Mountain Apr 10, 2019 $12.99N/A (N/A)0 .. 20,0000%00:00 (00:00)Lightfoot BrothersLightfoot Brothers
64 Tales of the Neon Sea Apr 29, 2019 $16.99N/A (N/A)500,000 .. 1,000,0000%00:00 (00:00)Palm PioneerThermite Games
65 Shining Song Starnova Sep 13, 2018 $29.99N/A (N/A)0 .. 20,0000%00:00 (00:00)Love in SpaceSekai Project
66 ZED Jun 4, 2019 $17.99N/A (N/A)0 .. 20,0000%00:00 (00:00)Eagre GamesCyan Ventures
67 HARDCORE MECHA Jun 26, 2019 $19.99N/A (N/A)200,000 .. 500,0000%00:00 (00:00)RocketPunch GamesRocketPunch Games, Lightning Games
68 Muv-Luv photonflowers* Aug 2, 2019 $24.99N/A (N/A)0 .. 20,0000%00:00 (00:00)aNCHOR Inc.aNCHOR Inc.
69 M.A.S.S. Builder Sep 13, 2019 $21.24N/A (N/A)100,000 .. 200,0000%00:00 (00:00)Vermillion DigitalSekai Project
70 Time of the Moon Nov 1, 2019 $9.99N/A (N/A)0 .. 20,0000%00:00 (00:00)DawnfoxDawnfox
71 Last Labyrinth(ラストラビリンス) Nov 12, 2019 $29.99N/A (N/A)0 .. 20,0000%00:00 (00:00)AMATA K.K.AMATA K.K.
72 Last Year Dec 9, 2019 N/AN/A (N/A)200,000 .. 500,0000%00:00 (00:00)Elastic GamesElastic Games
73 Caffeine: Victoria's Legacy Mar 20, 2020 $17.99N/A (N/A)0 .. 20,0000%00:00 (00:00)Kikai DigitalKikai Digital
74 Log Jammers May 26, 2020 $4.99N/A (N/A)0 .. 20,0000%00:00 (00:00)Mega Cat StudiosMega Cat Studios
75 Trazz Jul 1, 2020 $9.99N/A (N/A)0 .. 20,0000%00:00 (00:00)Axoma GamesAxoma Games
76 Arcana Heart 3 LOVEMAX SIXSTARS!!!!!! XTEND Dec 12, 2017 $29.99N/A (N/A)20,000 .. 50,0000%00:00 (00:00)Team ArcanaArc System Works
77 Memory's Dogma CODE:01 Nov 4, 2016 $14.99N/A (N/A)20,000 .. 50,0000%00:00 (00:00)Liz-ArtsSekai Project
78 WORLD END ECONOMiCA episode.03 Dec 21, 2016 $12.99N/A (N/A)20,000 .. 50,0000%00:00 (00:00)Spicy TailsSekai Project
79 Sumer Feb 15, 2017 $14.99N/A (N/A)0 .. 20,0000%00:00 (00:00)Studio WumpusStudio Wumpus
80 Muv-Luv photonmelodies♮ Jul 29, 2020 $29.99N/A (N/A)0 .. 20,0000%00:00 (00:00)aNCHOR Inc.aNCHOR Inc.
81 Walkerman May 22, 2017 $6.99N/A (N/A)0 .. 20,0000%00:00 (00:00)ScalemaiLSekai Project
82 Order of Ataxia: Initial Effects Aug 17, 2017 $9.99N/A (N/A)0 .. 20,0000%00:00 (00:00)IDHAS StudiosSekai Project
83 spaceBOUND Sep 1, 2017 $4.99N/A (N/A)0 .. 20,0000%00:00 (00:00)Gravity Whale GamesGravity Whale Games
84 Ne no Kami - The Two Princess Knights of Kyoto Part 2 Sep 7, 2017 $9.99N/A (N/A)0 .. 20,0000%00:00 (00:00)Kuro Irodoru YomijiSekai Project
85 YAGZZ! Mar 27, 2018 $0.99N/A (N/A)0 .. 20,0000%00:00 (00:00)Demin GamesDemin Games
86 PATHOS Dec 5, 2017 FreeN/A (N/A)0 .. 20,0000%00:00 (00:00)BroguelikeAccordion Games
87 Ne no Kami: The Two Princess Knights of Kyoto Oct 26, 2016 $9.99N/A (N/A)0 .. 20,0000%00:00 (00:00)Kuro Irodoru YomijiSekai Project
88 Hoshizora no Memoria -Wish upon a Shooting Star- Dec 18, 2017 $19.99N/A (N/A)20,000 .. 50,0000%00:00 (00:00)FavoriteSekai Project
89 A Clockwork Ley-Line: The Borderline of Dusk Dec 18, 2017 $19.99N/A (N/A)0 .. 20,0000%00:00 (00:00)Unison Shift: BlossomSekai Project
90 Chessaria: The Tactical Adventure (Chess) Mar 8, 2018 $19.99N/A (N/A)0 .. 20,0000%00:00 (00:00)Pixel WizardsPixel Wizards
91 Fatal Twelve Mar 30, 2018 $19.99N/A (N/A)0 .. 20,0000%00:00 (00:00)aiueoKompanySekai Project
92 Super Daryl Deluxe Apr 10, 2018 $19.99N/A (N/A)50,000 .. 100,0000%00:00 (00:00)Dan & Gary GamesDan & Gary Games
93 Deep Dark Dungeon May 8, 2018 $9.99N/A (N/A)0 .. 20,0000%00:00 (00:00)GlassCatsGlassCats, PsychoFlux Entertainment
94 A Light in the Dark Jun 15, 2018 $7.49N/A (N/A)50,000 .. 100,0000%00:00 (00:00)CreSpirit, Storia, NarratorSekai Project
95 Indie Pogo Jul 10, 2018 $14.99N/A (N/A)20,000 .. 50,0000%00:00 (00:00)Lowe Bros. Studios LLCLowe Bros. Studios LLC
96 NEKOPARA Extra Jul 26, 2018 $4.99N/A (N/A)200,000 .. 500,0000%00:00 (00:00)NEKO WORKsSekai Project
Overview

Crowdfunded

Games with this tag: 96
Average userscore: N/A%
Average metascore: 77.05%
Average playtime: 22:17
Total copies owned: 25,576,000
Average price: $15.77
Help

Owners: Estimated number of people owning this game. The number might be way too small for new releases and sometimes way too big for games that had free weekend event recently. Read more on About page.

Playtime: Average hours played in total per person that have actually launched this game since March 2009. This time is calculated for the whole lifetime, not for the particular year.

Average score: Average users and metacritic score for all games with this score assigned.

Average playtime: Average lifetime playtime for all games where this data is available.

Games in this genre: Self-explaining - number of games with this tag. Only inculdes games with sales data available.

Total copies owned: Refers to total copies of games with this tag acquired by users for the lifetime. Includes copies sold, downloaded for free and given out.

This number might be too small for recently released games or too big for games that had a free weekend in the last couple of months.

Graphs

Login required.

Please register or log in to see this information.

Login required.

Please register or log in to see this information.